GALILEO211 [COD] 1 41549C 16030A 22226.99979167 .00000000 00000+0 00000+0 0 2265 2 41549 55.7316 260.2799 0004181 299.6692 147.5372 1.70475126 17 GALILEO211 [ESA] 1 41549C 16030A 22226.99979167 .00000000 00000+0 00000+0 0 2265 2 41549 55.7316 260.2799 0004181 299.6710 147.5354 1.70475125 17 GALILEO211 [GAL] 1 41549C 16030A 22227.01020833 .00000000 00000+0 00000+0 0 2277 2 41549 55.7316 260.2796 0004182 299.6712 153.9282 1.70475125 18 GALILEO210 [COD] 1 41550C 16030B 22226.99979167 .00000000 00000+0 00000+0 0 2267 2 41550 55.7311 260.2813 0004470 271.1365 356.4839 1.70475199 13 GALILEO210 [ESA] 1 41550C 16030B 22226.99979167 .00000000 00000+0 00000+0 0 2267 2 41550 55.7311 260.2813 0004470 271.1372 356.4833 1.70475199 15 GALILEO210 [GAL] 1 41550C 16030B 22227.01020833 .00000000 00000+0 00000+0 0 2279 2 41550 55.7311 260.2810 0004471 271.1390 2.8744 1.70475199 16